Vorticity
4 4 5 5 7 8 8 13 8 8 6 4 5 5 5 4 7 7 9 10 8 6 6 6 8 2 1 2 6 6 7 6 4 5 -1 4 5 2 4 8 12 13 11 12 10
6 6 6 4 4 5 4 12 8 8 6 5 5 4 6 6 7 9 9 4 4 4 4 5 7 6 3 4 5 6 7 5 2 3 0 8 7 7 3 9 9 15 15 10 9
4 5 5 5 5 6 6 5 6 7 7 5 5 4 6 7 6 8 8 4 3 4 6 6 7 7 5 5 2 6 5 5 6 -0 2 7 3 4 4 7 9 10 11 6 19
8 10 12 11 9 8 8 9 5 6 5 5 5 6 8 8 6 10 7 5 4 3 5 6 9 7 3 5 6 4 3 8 -0 2 10 2 4 2 3 9 8 8 6 5 25
7 7 7 8 7 8 8 8 7 7 5 4 6 8 8 5 6 9 6 4 3 5 6 7 7 5 4 4 5 1 9 4 4 5 6 2 3 2 2 8 10 10 5 8 19
7 7 6 7 7 6 7 7 7 7 4 5 5 5 6 6 10 8 8 6 6 5 8 10 8 4 3 3 4 4 6 4 6 4 4 2 2 2 2 10 11 17 4 2 9
10 11 12 10 9 7 6 7 9 6 1 4 7 4 8 8 8 9 7 7 7 7 3 10 6 2 3 4 3 5 6 5 8 5 4 1 2 2 1 9 8 20 6 4 -0
9 8 12 11 8 7 6 9 8 6 1 4 6 4 9 6 8 5 10 7 8 4 6 12 5 3 4 4 5 5 5 10 8 6 3 -0 -0 0 2 6 11 16 11 6 6
9 7 8 8 5 6 8 7 6 4 5 7 6 8 6 7 8 8 4 6 6 5 9 11 6 3 4 7 4 4 6 8 11 5 3 3 2 3 2 2 6 16 16 7 8
12 6 6 5 5 7 9 7 5 5 6 6 10 6 5 6 3 6 4 4 11 10 12 9 4 3 4 5 2 6 7 6 7 7 6 3 2 2 2 2 4 7 16 12 11
13 10 5 6 7 15 5 4 6 5 3 5 6 4 4 5 8 7 7 8 11 18 11 6 3 5 2 4 6 7 7 6 7 10 4 8 4 1 5 1 2 2 16 7 15
18 17 11 11 10 2 4 3 2 1 4 7 4 10 9 10 9 11 9 9 15 15 10 3 4 3 4 4 5 7 5 6 9 9 6 8 2 3 6 3 1 2 7 15 7
10 11 9 3 1 2 4 2 2 7 11 9 8 8 8 7 9 7 11 13 16 15 6 2 2 5 3 4 3 3 4 8 8 7 10 6 7 6 5 4 5 4 5 11 13
4 3 3 3 5 7 8 8 9 7 8 6 7 7 6 7 8 10 10 8 13 8 3 4 4 2 1 3 3 3 1 5 8 9 11 13 5 7 5 1 4 6 8 7 9
8 9 10 10 9 8 5 8 11 12 10 10 11 8 10 9 10 11 12 9 9 8 6 5 3 3 2 2 2 0 -2 3 2 8 11 13 7 1 6 5 3 4 6 5 12
5 4 2 3 3 4 6 9 11 11 11 9 8 9 10 11 10 8 9 10 8 8 8 6 6 6 3 4 3 3 0 3 5 6 13 6 12 4 6 4 5 4 5 7 10
4 4 3 4 3 5 7 10 9 10 10 9 10 13 13 15 14 8 7 10 9 9 5 9 6 8 4 5 3 3 3 3 8 3 13 13 10 2 10 2 4 5 2 5 10
8 8 7 7 7 6 7 9 9 7 7 7 4 2 3 2 15 22 11 9 8 8 6 9 8 9 6 7 4 6 4 8 11 6 9 14 12 6 11 5 3 6 5 1 6
9 8 6 6 5 7 8 8 6 6 3 6 5 2 2 2 2 4 9 7 9 10 9 9 5 8 7 4 4 6 8 10 7 8 7 8 14 16 3 6 7 3 4 6 5
5 4 7 6 7 8 8 9 9 8 4 5 5 6 4 4 4 7 3 4 6 5 3 5 7 8 9 6 6 4 9 12 8 5 4 6 22 13 6 4 9 6 4 2 7
2 3 5 7 7 6 6 7 8 10 7 4 5 6 5 5 3 4 7 1 5 6 6 4 2 7 8 4 3 15 9 8 7 8 5 2 31 5 5 5 2 12 5 4 7
4 5 5 5 6 6 5 4 4 4 5 9 6 4 4 4 4 6 5 4 5 7 8 9 8 6 9 10 6 11 8 6 5 4 9 1 11 23 1 10 2 11 8 3 5
3 4 2 1 3 4 4 4 2 5 1 1 2 1 5 2 4 3 3 5 2 5 8 9 8 13 10 11 14 10 4 8 -2 -0 3 3 12 1 16 8 8 10 10 10 4
3 1 1 4 4 5 7 5 5 3 2 2 3 6 5 4 4 4 7 6 5 9 6 7 8 4 15 6 4 13 3 4 -0 6 10 -0 9 14 -0 0 8 8 4 9 11
3 3 5 5 7 4 4 0 1 8 7 7 5 4 7 9 8 6 10 9 8 9 5 13 13 6 11 8 3 2 10 2 7 10 6 13 13 6 2 6 10 5 6 11 14
5 6 3 -2 1 -1 2 5 12 11 4 10 6 8 3 5 3 8 10 9 7 4 5 4 9 9 17 4 6 10 4 7 11 5 9 3 7 3 3 4 11 3 8 12 11
5 3 0 -1 6 3 4 4 7 4 8 7 15 13 9 6 6 5 12 11 8 10 13 19 8 6 9 6 7 8 9 6 9 6 5 7 6 4 13 10 11 6 7 9 8
Height
5875 5875 5875 5875 5874 5874 5873 5873 5872 5872 5872 5871 5870 5869 5869 5867 5866 5864 5864 5864 5862 5861 5859 5858 5856 5855 5852 5850 5847 5844 5840 5836 5832 5828 5823 5817 5811 5805 5799 5791 5780 5769 5758 5747 5736
5875 5874 5874 5874 5874 5873 5873 5872 5872 5872 5871 5870 5869 5869 5867 5866 5865 5864 5863 5861 5860 5859 5858 5856 5854 5852 5850 5847 5844 5841 5836 5832 5827 5823 5816 5812 5805 5798 5793 5784 5772 5759 5748 5736 5723
5873 5873 5873 5873 5873 5872 5872 5872 5871 5871 5870 5870 5869 5868 5866 5865 5864 5862 5862 5860 5859 5857 5856 5854 5852 5850 5847 5844 5840 5836 5832 5827 5823 5817 5812 5807 5799 5793 5786 5776 5762 5750 5738 5727 5711
5872 5871 5871 5871 5871 5871 5871 5871 5871 5870 5870 5869 5868 5866 5865 5864 5864 5861 5860 5858 5857 5855 5853 5850 5849 5847 5844 5841 5837 5833 5828 5823 5818 5813 5808 5801 5794 5787 5778 5768 5754 5741 5730 5717 5704
5870 5870 5870 5870 5870 5870 5871 5871 5870 5869 5869 5868 5867 5865 5864 5863 5861 5859 5857 5856 5854 5852 5850 5848 5846 5844 5841 5837 5833 5828 5824 5818 5813 5809 5803 5797 5790 5780 5771 5760 5747 5734 5723 5711 5697
5869 5869 5869 5869 5869 5869 5870 5870 5869 5869 5868 5867 5866 5864 5863 5861 5859 5857 5855 5853 5851 5849 5847 5845 5843 5841 5838 5834 5829 5824 5820 5814 5810 5804 5798 5790 5781 5773 5765 5753 5741 5728 5717 5706 5690
5868 5867 5867 5868 5869 5869 5869 5869 5869 5868 5867 5866 5864 5862 5861 5859 5856 5854 5852 5850 5848 5846 5844 5842 5840 5839 5835 5830 5825 5820 5816 5811 5805 5800 5793 5785 5776 5767 5759 5748 5734 5723 5711 5700 5687
5867 5867 5867 5867 5867 5868 5868 5868 5868 5867 5866 5865 5863 5861 5859 5856 5854 5852 5849 5847 5845 5843 5841 5839 5837 5834 5830 5826 5822 5816 5812 5806 5800 5794 5787 5778 5771 5762 5753 5741 5730 5718 5707 5696 5684
5866 5866 5866 5867 5867 5867 5867 5867 5867 5866 5865 5863 5861 5859 5857 5855 5852 5849 5847 5845 5842 5840 5838 5835 5834 5831 5827 5823 5818 5814 5809 5802 5796 5787 5781 5771 5764 5756 5746 5736 5725 5714 5703 5692 5682
5865 5866 5866 5866 5866 5866 5866 5866 5866 5865 5863 5861 5859 5859 5855 5853 5850 5847 5845 5842 5839 5836 5834 5832 5829 5825 5822 5818 5814 5809 5804 5797 5790 5783 5774 5767 5758 5749 5739 5730 5719 5709 5698 5688 5677
5864 5865 5866 5866 5866 5866 5866 5866 5866 5865 5863 5860 5858 5855 5851 5849 5847 5844 5841 5838 5834 5832 5830 5828 5825 5821 5818 5814 5809 5803 5797 5792 5786 5778 5771 5764 5753 5744 5734 5724 5714 5704 5695 5684 5675
5864 5865 5865 5866 5866 5866 5865 5864 5863 5863 5860 5857 5854 5851 5849 5845 5843 5839 5836 5834 5830 5828 5826 5824 5821 5817 5813 5809 5803 5798 5791 5786 5782 5773 5766 5758 5747 5738 5729 5719 5710 5700 5690 5681 5671
5866 5865 5866 5866 5866 5865 5864 5863 5861 5859 5857 5854 5851 5849 5846 5843 5840 5837 5834 5830 5827 5824 5822 5820 5817 5812 5808 5803 5798 5791 5786 5780 5775 5769 5759 5753 5744 5732 5723 5713 5704 5695 5685 5676 5667
5866 5866 5866 5865 5866 5864 5863 5861 5859 5856 5854 5852 5849 5846 5844 5839 5837 5833 5830 5828 5824 5822 5819 5816 5812 5808 5803 5798 5792 5786 5780 5774 5767 5761 5754 5745 5736 5725 5716 5707 5697 5688 5678 5669 5661
5866 5866 5865 5865 5865 5863 5862 5859 5857 5855 5852 5850 5846 5843 5840 5837 5834 5830 5827 5824 5821 5818 5816 5812 5807 5802 5797 5792 5786 5780 5774 5767 5760 5753 5747 5736 5729 5718 5710 5701 5691 5682 5672 5663 5654
5867 5866 5865 5865 5864 5862 5859 5856 5854 5853 5849 5847 5843 5840 5837 5833 5830 5827 5825 5822 5819 5815 5811 5807 5801 5798 5793 5787 5782 5776 5768 5761 5753 5744 5738 5729 5722 5713 5704 5694 5685 5675 5666 5656 5647
5866 5865 5864 5863 5862 5859 5857 5854 5853 5849 5848 5845 5842 5838 5835 5831 5827 5823 5820 5817 5814 5813 5809 5805 5797 5794 5790 5784 5778 5771 5761 5755 5745 5737 5730 5723 5717 5704 5694 5686 5678 5669 5658 5648 5638
5865 5864 5862 5861 5859 5857 5855 5853 5850 5847 5844 5842 5839 5836 5833 5830 5826 5821 5818 5815 5810 5806 5802 5801 5796 5791 5785 5778 5772 5766 5756 5746 5736 5729 5724 5717 5708 5698 5687 5679 5670 5661 5651 5640 5629
5862 5861 5860 5859 5857 5854 5853 5850 5847 5845 5842 5840 5837 5834 5830 5826 5822 5819 5815 5811 5806 5801 5796 5789 5790 5784 5779 5771 5766 5760 5750 5740 5731 5723 5714 5708 5701 5692 5678 5671 5662 5652 5642 5631 5620
5860 5859 5858 5856 5853 5851 5850 5847 5844 5842 5839 5836 5833 5830 5826 5823 5819 5814 5811 5806 5802 5797 5791 5786 5781 5777 5773 5764 5759 5753 5742 5731 5722 5712 5703 5698 5693 5681 5672 5662 5652 5641 5632 5620 5609
5857 5855 5854 5852 5850 5848 5846 5844 5841 5838 5835 5833 5829 5825 5822 5818 5815 5811 5806 5803 5797 5791 5785 5779 5776 5772 5766 5757 5751 5745 5734 5723 5716 5708 5696 5686 5686 5672 5661 5653 5643 5632 5621 5609 5599
5853 5852 5850 5848 5848 5845 5843 5840 5838 5834 5831 5828 5824 5821 5816 5812 5811 5806 5802 5797 5791 5785 5778 5773 5768 5762 5759 5749 5743 5738 5728 5719 5709 5702 5693 5680 5677 5663 5652 5642 5632 5623 5612 5600 5588
5848 5847 5846 5844 5842 5840 5838 5835 5833 5830 5826 5823 5819 5815 5811 5807 5801 5800 5795 5792 5786 5781 5773 5766 5760 5753 5753 5744 5738 5732 5723 5714 5704 5695 5687 5675 5666 5655 5643 5634 5623 5612 5603 5593 5581
5844 5842 5841 5839 5837 5835 5833 5830 5827 5824 5821 5817 5813 5808 5804 5801 5795 5791 5786 5782 5779 5773 5767 5760 5755 5748 5746 5738 5731 5724 5715 5705 5696 5685 5677 5669 5660 5654 5640 5628 5618 5605 5594 5584 5571
5837 5836 5835 5833 5830 5828 5826 5823 5819 5816 5815 5809 5806 5801 5796 5791 5787 5785 5781 5776 5772 5766 5761 5755 5748 5742 5740 5731 5723 5717 5706 5696 5686 5677 5667 5661 5646 5638 5628 5620 5609 5598 5586 5574 5562
5829 5829 5828 5826 5823 5820 5817 5814 5811 5807 5804 5801 5796 5793 5789 5784 5779 5772 5768 5765 5761 5756 5750 5746 5737 5733 5734 5726 5716 5712 5700 5689 5679 5670 5658 5648 5643 5629 5618 5608 5598 5586 5575 5563 5551
5820 5819 5818 5819 5816 5813 5810 5805 5802 5797 5796 5791 5787 5781 5779 5776 5771 5766 5762 5757 5752 5747 5742 5736 5729 5725 5724 5720 5708 5705 5695 5681 5672 5663 5649 5640 5628 5621 5612 5599 5587 5577 5563 5552 5541